Location: Unspecified
(57.6483°N, 3.3184°W)
Time: 08:08:00
(UTC+01:00)

FO-29 - Visible Passes

Search period start: 11 May 2021 00:00
Search period end: 21 May 2021 00:00
Orbit: 801 x 1321 km, 98.6° (Epoch: 10 May)

Date Brightness Start Highest point End Pass type
(mag) Time Alt. Az. Time Alt. Az. Time Alt. Az.
11 May 11.4 00:12:23 10° SSW 00:19:08 32° W 00:26:03 10° NNW visible
11 May 10.6 23:15:54 10° S 23:23:30 58° W 23:31:17 10° NNW visible
12 May 12.0 01:05:16 10° WSW 01:10:14 18° WNW 01:15:16 10° NW visible
12 May 10.2 22:20:34 10° SSE 22:28:22 83° ENE 22:36:15 10° NNW visible
13 May 11.3 00:07:16 10° SSW 00:14:08 34° W 00:21:08 10° NNW visible
13 May 10.6 23:10:52 10° S 23:18:34 60° W 23:26:20 10° NNW visible
14 May 12.0 01:00:01 10° WSW 01:05:12 19° WNW 01:10:26 10° NW visible
14 May 10.2 22:15:38 10° SSE 22:23:27 80° ENE 22:31:17 10° NNW visible
15 May 11.3 00:02:09 10° SSW 00:09:09 35° W 00:16:12 10° NNW visible
15 May 10.5 23:05:52 10° S 23:13:37 63° W 23:21:23 10° NNW visible
16 May 12.0 00:54:46 10° WSW 01:00:10 20° WNW 01:05:34 10° NW visible
16 May 11.2 23:57:04 10° SSW 00:04:10 37° W 00:11:16 10° NNW visible
17 May 10.5 23:00:52 10° S 23:08:41 66° WSW 23:16:25 10° NNW visible
18 May 11.9 00:49:33 10° SW 00:55:08 21° W 01:00:41 10° NNW visible
18 May 11.2 23:52:00 10° SSW 23:59:12 38° W 00:06:19 10° NNW visible
19 May 12.4 01:45:29 10° WNW 01:46:33 10° WNW 01:47:37 10° WNW visible
19 May 10.4 22:55:54 10° S 23:03:45 68° WSW 23:11:26 10° NNW visible
20 May 11.9 00:44:22 10° SW 00:50:06 22° W 00:55:46 10° NNW visible
